[[{"header":{"parameterUnit":"m.s-1","parameterCategory":1,"la1":30.2991,"la2":30.254,"lo1":-89.0895,"lo2":-89.0444,"dy":0.0017,"dx":0.0017,"nx":28,"ny":28,"refTime":"2023-08-02T09:00:00:Z","depth":0,"parameterNumber":2,"parameterNumberName":"U-component_of_WINDS"},"data":[0,0,0,0,0,0,0,0,0,0,0,0,0,0,0,0,0,0,0,0,0,0,0,0,0,0,0,0,0,0,0,0,0,0,0,0,0,0,0,0,0,0,0,0,0,0,0,0,0,0,0,0,0,0,0,0,0,0,-0.8007,-0.8008,0,-0.8091,-0.8092,-0.8093,-0.8089,-0.8087,-0.8086,-0.8085,-0.8167,-0.8171,-0.8174,0,0,0,0,0,0,0,0,0,0,0,0,0,-0.7838,-0.7841,-0.8007,-0.8008,-0.8009,-0.8091,-0.8092,-0.8094,-0.8089,-0.8087,-0.8086,-0.8085,-0.8166,-0.817,-0.8174,0,0,0,0,0,0,0,0,0,0,0,0,0,-0.7916,-0.7842,-0.8007,-0.8017,-0.8018,-0.8091,-0.8092,-0.8094,-0.8089,-0.8087,-0.8086,-0.8084,-0.8165,-0.817,-0.8175,-0.8242,0,0,-0.819,-0.8192,0,0,0,0,0,0,0,0,-0.7911,-0.7922,-0.8014,-0.8016,-0.8018,-0.8078,-0.8063,-0.8143,-0.809,-0.8062,-0.8085,-0.8083,-0.8139,-0.8146,-0.8165,-0.8245,-0.8249,-0.819,-0.8193,-0.8195,-0.8197,0,0,0,0,0,0,0,-0.7906,-0.7918,-0.804,-0.8016,-0.8018,-0.8016,-0.8025,-0.8078,-0.8109,-0.8064,-0.8064,-0.8075,-0.8139,-0.8161,-0.8167,-0.825,-0.819,-0.8195,-0.8198,-0.82,-0.839,-0.8392,0,0,0,0,0,0,-0.7899,-0.7914,-0.8038,-0.8043,-0.7959,-0.802,-0.803,-0.806,-0.8109,-0.8115,-0.8076,-0.8074,-0.8153,-0.8161,-0.817,-0.8253,-0.8195,-0.82,-0.8203,-0.8388,-0.8391,-0.8393,0,0,0,0,0,0,-0.7895,-0.791,-0.8034,-0.7978,-0.7994,-0.8025,-0.8059,-0.8063,-0.8084,-0.8118,-0.8123,-0.8092,-0.8152,-0.8163,-0.8224,-0.8256,-0.8202,-0.8207,-0.8386,-0.8389,-0.8392,-0.8418,0,0,0,0,0,0,-0.789,-0.7909,-0.7935,-0.7979,-0.7997,-0.8088,-0.8061,-0.8066,-0.8093,-0.8092,-0.8134,-0.814,-0.8151,-0.8217,-0.8229,-0.8261,-0.8211,-0.8383,-0.8387,-0.8391,-0.8415,-0.8422,-0.8428,0,0,0,0,0,-0.7884,-0.7938,-0.7937,-0.7952,-0.8031,-0.809,-0.81,-0.8114,-0.8096,-0.8122,-0.8144,-0.8138,-0.825,-0.8223,-0.8237,-0.8271,-0.8381,-0.8386,-0.839,-0.8412,-0.842,-0.8428,0,0,0,0,0,0,-0.7895,-0.7944,-0.7943,-0.8013,-0.8048,-0.8089,-0.8123,-0.8122,-0.8162,-0.8158,-0.8172,-0.8182,-0.8244,-0.8263,-0.8233,-0.8339,-0.8313,-0.8321,-0.8324,-0.8333,-0.8339,-0.8334,-0.8215,0,0,0,0,0,-0.7906,-0.7951,-0.7991,-0.8048,-0.8066,-0.8092,-0.8118,-0.8125,-0.8161,-0.8176,-0.8202,-0.8236,-0.8279,-0.8307,-0.8348,-0.8417,-0.8426,-0.8447,-0.8454,-0.8459,-0.8466,-0.8505,-0.8515,-0.8408,-0.8408,-0.8408,0,0,-0.7928,-0.796,-0.7988,-0.8051,-0.8079,-0.8125,-0.8104,-0.8153,-0.8186,-0.8183,-0.8243,-0.8263,-0.8302,-0.8368,-0.8398,-0.8386,-0.8497,-0.8465,-0.8469,-0.8473,-0.8511,-0.8521,-0.853,-0.8411,-0.8411,-0.841,0,0,-0.7993,-0.8021,-0.8073,-0.8102,-0.8145,-0.8162,-0.8175,-0.8217,-0.8231,-0.8292,-0.829,-0.833,-0.8403,-0.8431,-0.8455,-0.8531,-0.8528,-0.8544,-0.8579,-0.8617,-0.8625,-0.8633,-0.8661,-0.8671,-0.855,-0.855,-0.855,0,-0.8014,-0.8085,-0.8099,-0.815,-0.8178,-0.8178,-0.823,-0.8257,-0.8311,-0.833,-0.8315,-0.8409,-0.8435,-0.8508,-0.8527,-0.8545,-0.856,-0.854,-0.8623,-0.8631,-0.8638,-0.8665,-0.8675,-0.8552,-0.8552,-0.8552,-0.8552,0,-0.811,-0.8159,-0.8195,-0.825,-0.8281,-0.8332,-0.8354,-0.8384,-0.8389,-0.8407,-0.8469,-0.8501,-0.8549,-0.8566,-0.8571,-0.864,-0.8632,-0.862,-0.8595,-0.865,-0.8675,-0.8686,-0.8555,-0.8554,-0.8554,-0.8553,0,0,-0.8184,-0.8247,-0.826,-0.8285,-0.8333,-0.8371,-0.8421,-0.847,-0.8496,-0.8533,-0.8576,-0.8638,-0.8628,-0.8655,-0.8663,-0.8696,-0.8756,-0.868,-0.8681,-0.8694,-0.8835,-0.8845,-0.8857,-0.8753,-0.8755,-0.8757,-0.8833,0,-0.8254,-0.8346,-0.8361,-0.8441,-0.8487,-0.8488,-0.8532,-0.8565,-0.8584,-0.8624,-0.8643,-0.8688,-0.8671,-0.8687,-0.872,-0.8741,-0.8784,-0.8736,-0.8793,-0.8795,-0.8785,-0.887,-0.888,-0.895,-0.8843,-0.8844,-0.8846,0,-0.8348,-0.839,-0.8476,-0.8519,-0.8539,-0.8578,-0.8625,-0.8663,-0.8701,-0.8712,-0.8743,-0.8747,-0.8799,-0.877,-0.8842,-0.8809,-0.8833,-0.8847,-0.885,-0.8856,-0.8824,-0.888,-0.8973,-0.8984,-0.8861,-0.886,-0.8859,0,-0.8395,-0.8473,-0.8534,-0.8556,-0.8607,-0.8635,-0.8658,-0.8694,-0.8723,-0.8763,-0.8782,-0.8826,-0.8851,-0.8885,-0.89,-0.8878,-0.8971,-0.8944,-0.8982,-0.8982,-0.9002,-0.9001,-0.9101,-0.9016,-0.9015,-0.9015,-0.9015,0,-0.8473,-0.8525,-0.8556,-0.8594,-0.8653,-0.8669,-0.8727,-0.8748,-0.8781,-0.8822,-0.8824,-0.8863,-0.8881,-0.8922,-0.8934,-0.8992,-0.9002,-0.9012,-0.9015,-0.9013,-0.9012,-0.903,-0.9026,-0.9018,-0.9017,-0.9017,-0.9016,0,-0.8536,-0.8558,-0.8626,-0.867,-0.8682,-0.8724,-0.8761,-0.8797,-0.8815,-0.8868,-0.8881,-0.8909,-0.8957,-0.8976,-0.9034,-0.9043,-0.911,-0.9108,-0.9098,-0.9099,-0.9136,-0.9133,-0.9253,-0.927,-0.9172,-0.9172,-0.9173,0,-0.8584,-0.8625,-0.8674,-0.8703,-0.8727,-0.8773,-0.8803,-0.8821,-0.8851,-0.8899,-0.8929,-0.8978,-0.9018,-0.9096,-0.912,-0.9165,-0.9165,-0.9204,-0.9172,-0.9169,-0.9167,-0.9165,-0.917,-0.921,-0.9211,-0.9212,-0.9213,0,-0.8669,-0.8678,-0.8722,-0.8771,-0.8807,-0.8846,-0.8883,-0.8906,-0.8929,-0.8963,-0.9014,-0.9045,-0.9106,-0.9155,-0.9202,-0.9223,-0.9222,-0.9223,-0.9234,-0.9233,-0.9226,-0.9231,-0.9116,-0.922,-0.9219,-0.9219,-0.9218,-0.9218,-0.8727,-0.8764,-0.8805,-0.8854,-0.8884,-0.8919,-0.8956,-0.898,-0.9023,-0.9076,-0.9082,-0.9137,-0.9174,-0.9237,-0.9261,-0.9303,-0.9293,-0.9309,-0.9313,-0.9317,-0.932,-0.9218,-0.9311,-0.9311,-0.9311,-0.9311,-0.9311,0,-0.8812,-0.8839,-0.8884,-0.8938,-0.8976,-0.8973,-0.9015,-0.9047,-0.9096,-0.9131,-0.9171,-0.923,-0.9277,-0.9306,-0.9354,-0.9382,-0.9383,-0.9394,-0.9392,-0.9398,-0.9326,-0.9313,-0.9393,-0.9393,-0.9393,-0.9393,-0.9393,-0.9393,-0.8861,-0.8924,-0.8939,-0.9017,-0.9042,-0.9098,-0.9122,-0.9154,-0.9183,-0.9249,-0.9289,-0.9308,-0.9341,-0.9391,-0.9434,-0.9441,-0.9459,-0.9472,-0.9478,-0.9411,-0.9403,-0.9394,-0.9382,-0.9475,-0.9475,-0.9546,-0.9547,-0.9547]},{"header":{"parameterUnit":"m.s-1","parameterCategory":1,"la1":30.2991,"la2":30.254,"lo1":-89.0895,"lo2":-89.0444,"dy":0.0017,"dx":0.0017,"nx":28,"ny":28,"refTime":"2023-08-02T09:00:00:Z","depth":0,"parameterNumber":3,"parameterNumberName":"V-component_of_WINDS"},"data":[0,0,0,0,0,0,0,0,0,0,0,0,0,0,0,0,0,0,0,0,0,0,0,0,0,0,0,0,0,0,0,0,0,0,0,0,0,0,0,0,0,0,0,0,0,0,0,0,0,0,0,0,0,0,0,0,0,0,-1.3471,-1.3472,0,-1.3529,-1.353,-1.3531,-1.3526,-1.3525,-1.3524,-1.3523,-1.3585,-1.3588,-1.359,0,0,0,0,0,0,0,0,0,0,0,0,0,-1.3359,-1.3361,-1.3471,-1.3472,-1.3473,-1.3529,-1.353,-1.3531,-1.3526,-1.3525,-1.3524,-1.3523,-1.3585,-1.3587,-1.359,0,0,0,0,0,0,0,0,0,0,0,0,0,-1.3411,-1.3361,-1.3471,-1.3477,-1.3478,-1.3529,-1.353,-1.3531,-1.3526,-1.3525,-1.3524,-1.3522,-1.3584,-1.3587,-1.3591,-1.3641,0,0,-1.3602,-1.3604,0,0,0,0,0,0,0,0,-1.3408,-1.3415,-1.3475,-1.3477,-1.3478,-1.3519,-1.3513,-1.3568,-1.3527,-1.3508,-1.3523,-1.3522,-1.3565,-1.357,-1.3584,-1.3644,-1.3646,-1.3603,-1.3605,-1.3606,-1.3608,0,0,0,0,0,0,0,-1.3405,-1.3413,-1.3494,-1.3476,-1.3478,-1.3478,-1.3484,-1.3524,-1.3543,-1.351,-1.3509,-1.3516,-1.3565,-1.358,-1.3585,-1.3647,-1.3603,-1.3606,-1.3608,-1.361,-1.3752,-1.3753,0,0,0,0,0,0,-1.3399,-1.341,-1.3493,-1.3496,-1.3439,-1.3481,-1.3487,-1.3507,-1.3543,-1.3547,-1.3517,-1.3516,-1.3574,-1.3581,-1.3587,-1.3649,-1.3606,-1.361,-1.3612,-1.375,-1.3752,-1.3754,0,0,0,0,0,0,-1.3397,-1.3407,-1.349,-1.3453,-1.3464,-1.3484,-1.3506,-1.3509,-1.3524,-1.3548,-1.3552,-1.3529,-1.3574,-1.3582,-1.3627,-1.3651,-1.3612,-1.3615,-1.3748,-1.3751,-1.3753,-1.3773,0,0,0,0,0,0,-1.3394,-1.3406,-1.3424,-1.3453,-1.3465,-1.3529,-1.3508,-1.3511,-1.353,-1.3529,-1.356,-1.3564,-1.3573,-1.3622,-1.3631,-1.3656,-1.3618,-1.3747,-1.375,-1.3752,-1.377,-1.3775,-1.378,0,0,0,0,0,-1.339,-1.3428,-1.3425,-1.3435,-1.3489,-1.353,-1.3537,-1.3546,-1.3532,-1.3552,-1.3567,-1.3563,-1.3646,-1.3627,-1.3637,-1.3663,-1.3745,-1.3749,-1.3752,-1.3768,-1.3774,-1.378,0,0,0,0,0,0,-1.3403,-1.3432,-1.3429,-1.3478,-1.3502,-1.3529,-1.3554,-1.3552,-1.3581,-1.3579,-1.3588,-1.3596,-1.3642,-1.3656,-1.3634,-1.3713,-1.3694,-1.37,-1.3702,-1.3709,-1.3714,-1.371,-1.3621,0,0,0,0,0,-1.3411,-1.3441,-1.3465,-1.3506,-1.3518,-1.3534,-1.3552,-1.3556,-1.3582,-1.3592,-1.3611,-1.3636,-1.3668,-1.3689,-1.3719,-1.3771,-1.3779,-1.3794,-1.3799,-1.3803,-1.3808,-1.3838,-1.3846,-1.3765,-1.3765,-1.3765,0,0,-1.3429,-1.3448,-1.3467,-1.3509,-1.3528,-1.356,-1.3542,-1.3577,-1.3601,-1.3597,-1.3642,-1.3656,-1.3685,-1.3734,-1.3757,-1.3748,-1.3832,-1.3807,-1.381,-1.3814,-1.3843,-1.385,-1.3857,-1.3768,-1.3767,-1.3767,0,0,-1.3478,-1.3495,-1.3532,-1.3551,-1.3579,-1.3589,-1.3598,-1.3626,-1.3635,-1.3679,-1.3677,-1.3706,-1.3761,-1.3782,-1.3799,-1.3856,-1.3854,-1.3865,-1.3892,-1.3921,-1.3927,-1.3933,-1.3955,-1.3963,-1.387,-1.387,-1.387,0,-1.3498,-1.3545,-1.3551,-1.3586,-1.3605,-1.3601,-1.3639,-1.3657,-1.3694,-1.3708,-1.3697,-1.3765,-1.3784,-1.3839,-1.3853,-1.3866,-1.3878,-1.3863,-1.3926,-1.3932,-1.3937,-1.3958,-1.3966,-1.3872,-1.3872,-1.3871,-1.3871,0,-1.3568,-1.3601,-1.3627,-1.3662,-1.3684,-1.372,-1.3732,-1.3753,-1.3755,-1.3767,-1.3813,-1.3835,-1.3871,-1.3883,-1.3886,-1.3939,-1.3932,-1.3923,-1.3905,-1.3946,-1.3966,-1.3974,-1.3874,-1.3873,-1.3873,-1.3872,0,0,-1.363,-1.3667,-1.3677,-1.3693,-1.3723,-1.3749,-1.3785,-1.3819,-1.3838,-1.3863,-1.3894,-1.394,-1.3931,-1.3952,-1.3956,-1.3981,-1.4027,-1.3969,-1.397,-1.3981,-1.4088,-1.4096,-1.4105,-1.4024,-1.4026,-1.4027,-1.4086,0,-1.3684,-1.3747,-1.3754,-1.3811,-1.3842,-1.3838,-1.387,-1.3892,-1.3904,-1.3932,-1.3945,-1.3978,-1.3964,-1.3976,-1.4,-1.4016,-1.4049,-1.4011,-1.4056,-1.4057,-1.4051,-1.4116,-1.4125,-1.4179,-1.4094,-1.4095,-1.4096,0,-1.3757,-1.3783,-1.3843,-1.3869,-1.3883,-1.3911,-1.3943,-1.3969,-1.3995,-1.4002,-1.4023,-1.4025,-1.4063,-1.404,-1.4094,-1.4068,-1.4086,-1.4097,-1.4099,-1.4106,-1.4081,-1.4126,-1.4197,-1.4206,-1.4108,-1.4107,-1.4106,0,-1.3798,-1.3849,-1.3892,-1.3905,-1.3936,-1.3956,-1.397,-1.3994,-1.4014,-1.4042,-1.4055,-1.4087,-1.4105,-1.413,-1.414,-1.4122,-1.4193,-1.4172,-1.4202,-1.4201,-1.4219,-1.4218,-1.4296,-1.4226,-1.4226,-1.4226,-1.4226,0,-1.386,-1.3897,-1.3911,-1.3937,-1.3979,-1.3986,-1.4027,-1.404,-1.4062,-1.4091,-1.409,-1.4118,-1.4128,-1.4158,-1.4166,-1.421,-1.4218,-1.4225,-1.4227,-1.4227,-1.4226,-1.4241,-1.4238,-1.4228,-1.4228,-1.4227,-1.4227,0,-1.3915,-1.3925,-1.3972,-1.3996,-1.4004,-1.4034,-1.4056,-1.4082,-1.4092,-1.413,-1.4139,-1.4156,-1.4191,-1.4202,-1.4245,-1.425,-1.4302,-1.43,-1.4294,-1.4295,-1.4325,-1.4323,-1.4417,-1.443,-1.435,-1.435,-1.4351,0,-1.3955,-1.3983,-1.4011,-1.403,-1.4045,-1.4076,-1.4096,-1.4103,-1.4124,-1.4155,-1.4178,-1.4212,-1.4241,-1.4297,-1.4314,-1.4347,-1.4347,-1.4377,-1.4352,-1.4351,-1.435,-1.4349,-1.4353,-1.4383,-1.4384,-1.4384,-1.4385,0,-1.4025,-1.4029,-1.4057,-1.4088,-1.4112,-1.4136,-1.416,-1.4176,-1.4187,-1.4211,-1.4246,-1.4268,-1.4311,-1.4346,-1.4379,-1.4395,-1.4393,-1.4392,-1.4401,-1.4403,-1.4399,-1.4403,-1.431,-1.4391,-1.439,-1.439,-1.439,-1.4389,-1.4076,-1.4101,-1.4125,-1.4157,-1.4175,-1.4197,-1.4223,-1.4236,-1.4265,-1.4301,-1.4303,-1.4342,-1.4366,-1.4411,-1.4427,-1.4458,-1.445,-1.4463,-1.4466,-1.447,-1.4473,-1.4391,-1.4464,-1.4464,-1.4464,-1.4464,-1.4464,0,-1.4148,-1.4162,-1.4192,-1.4225,-1.425,-1.4243,-1.4269,-1.4291,-1.4325,-1.4348,-1.4375,-1.4417,-1.445,-1.4469,-1.4502,-1.4524,-1.4524,-1.4533,-1.4533,-1.4537,-1.4478,-1.4468,-1.4532,-1.4532,-1.4532,-1.4532,-1.4532,-1.4532,-1.4189,-1.4232,-1.4238,-1.4291,-1.4305,-1.4343,-1.4358,-1.4379,-1.4397,-1.4443,-1.4471,-1.4482,-1.4503,-1.4538,-1.4569,-1.4574,-1.4588,-1.4598,-1.4602,-1.4548,-1.4541,-1.4534,-1.4525,-1.46,-1.46,-1.4658,-1.4659,-1.4659]}]]